TimeCST,TemperatureF,Dew PointF,Humidity,Sea Level PressureIn,VisibilityMPH,Wind Direction,Wind SpeedMPH,Gust SpeedMPH,PrecipitationIn,Events,Conditions,WindDirDegrees,DateUTC
12:15 AM,50.0,48.2,94,29.86,5.0,ESE,5.8,-,N/A,,Clear,110,2012-12-07 06:15:00
12:35 AM,50.0,48.2,94,29.85,5.0,ESE,6.9,-,N/A,,Clear,110,2012-12-07 06:35:00
12:55 AM,50.0,48.2,94,29.84,4.0,SE,6.9,-,N/A,,Clear,130,2012-12-07 06:55:00
1:15 AM,50.0,48.2,94,29.84,4.0,ESE,8.1,-,N/A,,Clear,120,2012-12-07 07:15:00
1:35 AM,50.0,48.2,94,29.83,4.0,ESE,8.1,-,N/A,,Scattered Clouds,120,2012-12-07 07:35:00
1:55 AM,50.0,48.2,94,29.83,4.0,SE,5.8,-,N/A,,Mostly Cloudy,140,2012-12-07 07:55:00
2:15 AM,50.0,50.0,100,29.83,4.0,SE,6.9,-,N/A,,Overcast,130,2012-12-07 08:15:00
2:35 AM,51.8,50.0,94,29.83,4.0,SSE,9.2,-,N/A,,Overcast,150,2012-12-07 08:35:00
2:55 AM,51.8,51.8,100,29.82,4.0,SSE,10.4,-,N/A,,Overcast,150,2012-12-07 08:55:00
3:15 AM,51.8,51.8,100,29.82,4.0,SE,8.1,-,N/A,,Overcast,140,2012-12-07 09:15:00
3:35 AM,51.8,51.8,100,29.83,4.0,SE,6.9,-,N/A,,Overcast,140,2012-12-07 09:35:00
3:55 AM,51.8,51.8,100,29.82,4.0,SSE,5.8,-,N/A,,Overcast,150,2012-12-07 09:55:00
4:15 AM,51.8,50.0,94,29.82,3.0,SE,5.8,-,N/A,,Overcast,140,2012-12-07 10:15:00
4:35 AM,51.8,50.0,94,29.81,3.0,SSE,4.6,-,N/A,,Scattered Clouds,150,2012-12-07 10:35:00
4:55 AM,51.8,50.0,94,29.81,2.5,SE,5.8,-,N/A,,Clear,140,2012-12-07 10:55:00
5:15 AM,50.0,50.0,100,29.81,1.8,Calm,Calm,-,N/A,,Mist,0,2012-12-07 11:15:00
5:35 AM,50.0,46.4,87,29.81,0.2,ESE,3.5,-,N/A,Fog,Fog,110,2012-12-07 11:35:00
5:55 AM,48.2,46.4,93,29.83,0.2,NNE,3.5,-,N/A,Fog,Fog,30,2012-12-07 11:55:00
6:15 AM,48.2,46.4,93,29.84,0.2,ENE,3.5,-,N/A,Fog,Fog,70,2012-12-07 12:15:00
6:35 AM,48.2,46.4,93,29.84,0.2,Calm,Calm,-,N/A,Fog,Fog,0,2012-12-07 12:35:00
6:55 AM,46.4,46.4,100,29.84,0.2,NE,3.5,-,N/A,Fog,Fog,40,2012-12-07 12:55:00
7:15 AM,46.4,46.4,100,29.85,0.2,Calm,Calm,-,N/A,Fog,Fog,0,2012-12-07 13:15:00
7:35 AM,46.4,46.4,100,29.85,0.2,Calm,Calm,-,N/A,Fog,Fog,0,2012-12-07 13:35:00
7:55 AM,46.4,46.4,100,29.85,0.2,Calm,Calm,-,N/A,Fog,Fog,0,2012-12-07 13:55:00
8:15 AM,50.0,48.2,94,29.85,0.5,Calm,Calm,-,N/A,Fog,Fog,0,2012-12-07 14:15:00
8:35 AM,51.8,51.8,100,29.85,2.5,SSW,4.6,-,N/A,,Overcast,210,2012-12-07 14:35:00
8:55 AM,53.6,53.6,100,29.86,3.0,SSW,3.5,-,N/A,,Overcast,210,2012-12-07 14:55:00
9:15 AM,53.6,53.6,100,29.86,4.0,SSW,3.5,-,N/A,,Overcast,210,2012-12-07 15:15:00
9:35 AM,53.6,53.6,100,29.86,4.0,South,6.9,-,N/A,,Scattered Clouds,190,2012-12-07 15:35:00
9:55 AM,55.4,55.4,100,29.86,5.0,South,5.8,-,N/A,,Clear,190,2012-12-07 15:55:00
10:15 AM,57.2,51.8,82,29.86,7.0,South,8.1,-,N/A,,Scattered Clouds,190,2012-12-07 16:15:00
10:35 AM,60.8,50.0,68,29.86,10.0,SSW,6.9,-,N/A,,Clear,200,2012-12-07 16:35:00
10:55 AM,60.8,50.0,68,29.85,10.0,SSW,6.9,-,N/A,,Clear,200,2012-12-07 16:55:00
11:15 AM,62.6,48.2,59,29.85,10.0,SW,5.8,-,N/A,,Clear,220,2012-12-07 17:15:00
11:35 AM,62.6,48.2,59,29.84,10.0,West,5.8,-,N/A,,Clear,260,2012-12-07 17:35:00
11:55 AM,62.6,48.2,59,29.84,10.0,West,8.1,-,N/A,,Clear,280,2012-12-07 17:55:00
12:15 PM,62.6,48.2,59,29.84,10.0,West,9.2,-,N/A,,Clear,260,2012-12-07 18:15:00
12:35 PM,62.6,46.4,55,29.82,10.0,West,8.1,-,N/A,,Clear,270,2012-12-07 18:35:00
1:15 PM,62.6,46.4,55,29.81,10.0,West,6.9,-,N/A,,Clear,260,2012-12-07 19:15:00
1:35 PM,64.4,48.2,56,29.80,10.0,WSW,6.9,-,N/A,,Clear,250,2012-12-07 19:35:00
1:55 PM,62.6,50.0,63,29.81,10.0,WSW,9.2,-,N/A,,Clear,240,2012-12-07 19:55:00
2:15 PM,62.6,50.0,63,29.80,10.0,West,9.2,-,N/A,,Clear,260,2012-12-07 20:15:00
2:35 PM,62.6,50.0,63,29.80,7.0,West,10.4,-,N/A,,Clear,270,2012-12-07 20:35:00
2:55 PM,60.8,50.0,68,29.81,10.0,West,11.5,-,N/A,,Clear,260,2012-12-07 20:55:00
3:15 PM,62.6,50.0,63,29.81,10.0,West,9.2,-,N/A,,Clear,280,2012-12-07 21:15:00
3:35 PM,62.6,50.0,63,29.81,10.0,West,10.4,-,N/A,,Clear,260,2012-12-07 21:35:00
3:55 PM,60.8,48.2,63,29.82,10.0,West,6.9,-,N/A,,Clear,280,2012-12-07 21:55:00
4:15 PM,60.8,48.2,63,29.82,10.0,WNW,6.9,-,N/A,,Clear,290,2012-12-07 22:15:00
4:55 PM,59.0,48.2,67,29.82,10.0,NW,6.9,-,N/A,,Clear,310,2012-12-07 22:55:00
5:15 PM,59.0,48.2,67,29.83,10.0,NW,8.1,-,N/A,,Clear,310,2012-12-07 23:15:00
5:35 PM,57.2,48.2,72,29.83,10.0,NW,5.8,-,N/A,,Clear,320,2012-12-07 23:35:00
5:55 PM,55.4,46.4,72,29.83,10.0,NW,6.9,-,N/A,,Clear,310,2012-12-07 23:55:00
6:15 PM,55.4,46.4,72,29.84,10.0,NW,5.8,-,N/A,,Clear,310,2012-12-08 00:15:00
6:35 PM,53.6,46.4,77,29.84,10.0,NW,8.1,-,N/A,,Clear,320,2012-12-08 00:35:00
7:15 PM,53.6,46.4,77,29.84,10.0,NNW,6.9,-,N/A,,Clear,330,2012-12-08 01:15:00
7:35 PM,51.8,46.4,82,29.84,10.0,NNW,5.8,-,N/A,,Clear,330,2012-12-08 01:35:00
7:55 PM,51.8,46.4,82,29.85,10.0,NNW,5.8,-,N/A,,Clear,330,2012-12-08 01:55:00
8:35 PM,51.8,48.2,88,29.86,10.0,NNW,8.1,-,N/A,,Clear,330,2012-12-08 02:35:00
8:55 PM,51.8,48.2,88,29.87,10.0,NNW,6.9,-,N/A,,Clear,330,2012-12-08 02:55:00
9:15 PM,51.8,48.2,88,29.87,7.0,NNW,5.8,-,N/A,,Clear,330,2012-12-08 03:15:00
9:35 PM,50.0,46.4,87,29.88,7.0,Calm,Calm,-,N/A,,Clear,0,2012-12-08 03:35:00
9:55 PM,48.2,44.6,87,29.89,7.0,Calm,Calm,-,N/A,,Clear,0,2012-12-08 03:55:00
10:15 PM,50.0,46.4,87,29.90,7.0,NNW,3.5,-,N/A,,Mostly Cloudy,340,2012-12-08 04:15:00
10:35 PM,51.8,48.2,88,29.90,7.0,NNW,6.9,-,N/A,,Overcast,330,2012-12-08 04:35:00
10:55 PM,51.8,48.2,88,29.90,7.0,NNW,4.6,-,N/A,,Overcast,340,2012-12-08 04:55:00
11:15 PM,51.8,48.2,88,29.91,7.0,NNW,5.8,-,N/A,,Overcast,330,2012-12-08 05:15:00
11:35 PM,51.8,46.4,82,29.91,7.0,NNW,8.1,-,N/A,,Overcast,330,2012-12-08 05:35:00
11:55 PM,51.8,46.4,82,29.90,5.0,NNW,11.5,-,N/A,,Overcast,330,2012-12-08 05:55:00